Regional Weather Roundup
Issued by NWS

Current Version | Previous Version | Text Only | Print | Product List | Glossary Off
Versions: 1 2 3 4 5 6 7 8 9 10 11 12 13 14 15 16 17 18 19 20 21 22 23 24 25 26 27 28 29 30 31 32 33 34 35 36 37 38 39 40 41 42 43 44 45 46 47 48 49 50

000
ASUS44 KJAN 021610
RWRMS

MISSISSIPPI HOURLY WEATHER ROUNDUP
NATIONAL WEATHER SERVICE JACKSON MS
1100 AM CDT THU OCT 02 2014

NOTE: "FAIR: INDICATES FEW OR NO CLOUDS BELOW 12,000 FEET WITH NO
SIGNIFICANT WEATHER AND/OR OBSTRUCTIONS TO VISIBILITY.

MSZ001>002-007>008-010>013-018>021-025>028-034>036-021700-
NORTHWEST MISSISSIPPI

CITY           SKY/WX    TMP DP  RH WIND       PRES   REMARKS
CLARKSDALE     CLOUDY    84  72  65 S13G20    29.94F
CLEVELAND      CLOUDY    84  74  72 S15       29.93F HX  92
GREENWOOD      PTSUNNY   84  73  69 S10       29.96F HX  90
GREENVILLE     PTSUNNY   82  76  81 SW8       29.93F
GRENADA        PTSUNNY   82  72  69 SW10      29.97F
OLIVE BRANCH   PTSUNNY   79  77  94 S12       29.95F
OXFORD         CLOUDY    75  72  88 S6        30.00S
TUNICA         PTSUNNY   82  72  69 S9        29.94F
$$

MSZ003>006-009-014>017-022>024-029>033-037>039-021700-
NORTHEAST MISSISSIPPI

CITY           SKY/WX    TMP DP  RH WIND       PRES   REMARKS
COLUMBUS AFB   PTSUNNY   81  71  71 S9        30.01F
CORINTH        CLOUDY    72  68  88 CALM      29.99F THUNDER
GOLDN TRIANGLE CLOUDY    75  70  83 S9        30.01S
STARKVILLE     PTSUNNY   79  72  78 SE9       30.00F
TUPELO         MOSUNNY   79  70  74 S10       29.99F
$$

MSZ040-058-021700-
CENTRAL MISSISSIPPI

CITY           SKY/WX    TMP DP  RH WIND       PRES   REMARKS
JACKSON INTL   PTSUNNY   80  76  87 S12       29.99F
JACKSON HAWKNS CLOUDY    82  74  76 S9        29.99S
MERIDIAN KEY   CLOUDY    78  73  84 S9        30.02S
MERIDIAN NAS   LGT RAIN  77  73  87 SE3       30.03S FOG
RAYMOND        PTSUNNY   82  77  83 S13G18    29.98F HX  91
VICKSBURG      PTSUNNY   86  74  67 S14       29.97S HX  94
$$

MSZ059>079-021700-
SOUTH MISSISSIPPI

CITY           SKY/WX    TMP DP  RH WIND       PRES   REMARKS
BROOKHAVEN     PTSUNNY   84  73  70 S9        30.02S HX  91
COLUMBIA       PTSUNNY   82  75  78 VRB6G13   30.00S
HATTIESBURG    MOSUNNY   85  75  72 S14       30.02S HX  93
MCCOMB         PTSUNNY   83  74  74 S8        30.01S
NATCHEZ        PTSUNNY   82  75  78 S9G16     29.99R
PINE BELT      PTSUNNY   82  73  74 S9        30.03S
$$

MSZ080>082-021700-
COASTAL MISSISSIPPI

CITY           SKY/WX    TMP DP  RH WIND       PRES   REMARKS
BAY ST LOUIS   PTSUNNY   84  73  70 SW9       30.01S HX  91
BILOXI         SUNNY     86  78  75 S9        30.02S HX  98
PASCAGOULA     LGT RAIN  78  75  90 S8        30.02S
GULFPORT       PTSUNNY   84  77  79 S14       30.01S HX  94
$$


USA.gov is the U.S. government's official web portal to all federal, state and local government web resources and services.